EUTELSAT 3B

Last updated on Tue Sep 22 2026 00:03:13 GMT+0000 (Coordinated Universal Time)

1 39773U 14030A 26264.34711005 .00000016 00000+0 00000+0 0 9993 2 39773 0.0628 355.5625 0004195 181.4214 311.3146 1.00271602 45038
UTC large
Height (km)
Speed (km/s)
/
Latitude / Longitude
Inclination (degrees)
Orbital Period (minutes)
Azimuth
Elevation
Range (km)
Doppler Factor

Next 0 passes for location: London (51.5072 / 0.1276)

No passes found over London.
EUTELSAT 3B